Location: Newark
(36.0797°N, 3.9744°E)
Time: 03:51:03
(UTC+00:00)

Vanguard 2 Rocket - Pass Details

Date: 08 December 2019
Orbit: 554 x 3326 km, 32.9° (Epoch: 17 January)

Event Time Altitude Azimuth Distance (km) Brightness Sun altitude
Rises 22:19:17 0° 275° (W) 4,315 - -68.7°
Reaches altitude 10° 22:22:56 10° 270° (W) 2,925 - -69.3°
Maximum altitude 22:29:06 44° 200° (SSW) 1,035 - -70.3°
Drops below altitude 10° 22:33:16 10° 127° (SE) 1,972 - -71.0°
Sets 22:35:19 0° 120° (ESE) 2,773 - -71.3°
